Location: Zagreb
(45.8000°N, 16.0000°E)
Time: 19:38:30
(UTC+01:00)

Oscar 11 - Pass Details

Date: 01 November 2020
Orbit: 613 x 625 km, 97.6° (Epoch: 01 December)

Event Time Altitude Azimuth Distance (km) Brightness Sun altitude
Rises 05:40:04 0° 21° (NNE) 2,891 10.6 -10.3°
Reaches altitude 10° 05:42:27 10° 32° (NNE) 1,981 9.9 -9.9°
Maximum altitude 05:46:19 32° 96° (E) 1,063 9.2 -9.2°
Drops below altitude 10° 05:50:09 10° 160° (SSE) 1,967 10.1 -8.6°
Sets 05:52:31 0° 170° (S) 2,868 10.8 -8.2°
